Location: Oshawa
(43.9000°N, 78.8670°W)
Time: 03:07:51
(UTC-04:00)

Cosmos 1500 - Visible Passes

Search period start: 27 April 2015 00:00
Search period end: 07 May 2015 00:00
Orbit: 512 x 533 km, 82.5° (Epoch: 25 April)

Date Brightness Start Highest point End Pass type
(mag) Time Alt. Az. Time Alt. Az. Time Alt. Az.
27 Apr 6.2 01:32:21 10° NW 01:32:49 12° NW 01:32:49 12° NW visible
27 Apr 5.7 23:43:40 10° NNE 23:44:56 16° NE 23:44:56 16° NE visible
28 Apr 6.1 01:19:18 10° NNW 01:20:05 14° NW 01:20:05 14° NW visible
28 Apr 5.7 23:30:55 10° NNE 23:32:12 16° NE 23:32:12 16° NE visible
29 Apr 5.9 01:06:17 10° NNW 01:07:21 16° NW 01:07:21 16° NW visible
29 Apr 5.7 23:18:11 10° NNE 23:19:28 15° NE 23:19:28 15° NE visible
30 Apr 5.8 00:53:16 10° NNW 00:54:37 19° NW 00:54:37 19° NW visible
30 Apr 5.7 23:05:29 10° NNE 23:06:43 14° NE 23:06:43 14° NE visible
01 May 5.6 00:40:15 10° NNW 00:41:52 22° NW 00:41:52 22° NW visible
01 May 5.7 22:52:49 10° NE 22:53:59 13° NE 22:53:59 13° NE visible
02 May 5.4 00:27:14 10° NNW 00:29:08 25° NW 00:29:08 25° NW visible
02 May 5.7 22:40:16 10° NE 22:41:15 12° ENE 22:41:15 12° ENE visible
03 May 5.1 00:14:14 10° NNW 00:16:24 29° NNW 00:16:24 29° NNW visible
03 May 5.7 22:27:56 10° NE 22:28:30 11° ENE 22:28:30 11° ENE visible
04 May 4.8 00:01:14 10° NNW 00:03:39 35° NNW 00:03:39 35° NNW visible
04 May 4.4 23:48:14 10° NNW 23:50:55 41° NNW 23:50:55 41° NNW visible
05 May 4.1 23:35:14 10° N 23:38:11 49° NNW 23:38:11 49° NNW visible
06 May 3.7 23:22:14 10° N 23:25:26 58° N 23:25:26 58° N visible
